Time,TemperatureF,DewpointF,PressureIn,WindDirection,WindDirectionDegrees,WindSpeedMPH,WindSpeedGustMPH,Humidity,HourlyPrecipIn,Conditions,Clouds,dailyrainin,SoftwareType,DateUTC
2013-08-31 00:10:00,79.9,76.7,29.75,SSW,202,4.2,-999.0,90,-99.99,,,0.00,Acu-Link.com,2013-08-31 05:10:00,
2013-08-31 00:26:00,79.5,76.6,29.75,SSW,202,3.7,-999.0,91,-99.99,,,0.00,Acu-Link.com,2013-08-31 05:26:00,
2013-08-31 00:41:00,79.0,76.5,29.75,South,180,3.7,-999.0,92,-99.99,,,0.00,Acu-Link.com,2013-08-31 05:41:00,
2013-08-31 00:56:00,78.8,76.6,29.76,SSW,202,4.2,-999.0,93,-99.99,,,0.00,Acu-Link.com,2013-08-31 05:56:00,
2013-08-31 01:11:00,78.6,76.4,29.76,West,270,4.2,-999.0,93,-99.99,,,0.00,Acu-Link.com,2013-08-31 06:11:00,
2013-08-31 01:26:00,78.3,76.4,29.75,West,270,3.2,-999.0,94,-99.99,,,0.00,Acu-Link.com,2013-08-31 06:26:00,
2013-08-31 01:41:00,77.7,76.1,29.76,SW,225,3.2,-999.0,95,-99.99,,,0.00,Acu-Link.com,2013-08-31 06:41:00,
2013-08-31 01:56:00,77.2,76.3,29.75,SW,225,2.7,-999.0,97,-99.99,,,0.00,Acu-Link.com,2013-08-31 06:56:00,
2013-08-31 02:11:00,77.2,76.3,29.74,South,180,4.2,-999.0,97,-99.99,,,0.00,Acu-Link.com,2013-08-31 07:11:00,
2013-08-31 02:27:00,77.2,76.3,29.74,SSE,157,4.2,-999.0,97,-99.99,,,0.00,Acu-Link.com,2013-08-31 07:27:00,
2013-08-31 02:42:00,77.0,76.4,29.73,SSW,202,4.2,-999.0,98,-99.99,,,0.00,Acu-Link.com,2013-08-31 07:42:00,
2013-08-31 02:57:00,76.8,76.2,29.73,South,180,5.3,-999.0,98,-99.99,,,0.00,Acu-Link.com,2013-08-31 07:57:00,
2013-08-31 03:15:00,76.8,76.2,29.72,West,270,4.7,-999.0,98,-99.99,,,0.00,Acu-Link.com,2013-08-31 08:15:00,
2013-08-31 03:32:00,76.8,76.2,29.72,SSE,157,3.7,-999.0,98,-99.99,,,0.00,Acu-Link.com,2013-08-31 08:32:00,
2013-08-31 03:47:00,76.8,76.2,29.72,SW,225,4.2,-999.0,98,-99.99,,,0.00,Acu-Link.com,2013-08-31 08:47:00,
2013-08-31 04:02:00,76.3,75.7,29.71,South,180,3.7,-999.0,98,-99.99,,,0.00,Acu-Link.com,2013-08-31 09:02:00,
2013-08-31 04:17:00,76.1,75.5,29.71,SSW,202,4.2,-999.0,98,-99.99,,,0.00,Acu-Link.com,2013-08-31 09:17:00,
2013-08-31 04:32:00,75.7,75.1,29.71,SW,225,2.7,-999.0,98,-99.99,,,0.00,Acu-Link.com,2013-08-31 09:32:00,
2013-08-31 04:47:00,75.6,75.0,29.71,WSW,247,5.3,-999.0,98,-99.99,,,0.00,Acu-Link.com,2013-08-31 09:47:00,
2013-08-31 05:02:00,75.6,75.0,29.71,SW,225,3.7,-999.0,98,-99.99,,,0.00,Acu-Link.com,2013-08-31 10:02:00,
2013-08-31 05:17:00,75.0,74.4,29.71,West,270,2.7,-999.0,98,-99.99,,,0.00,Acu-Link.com,2013-08-31 10:17:00,
2013-08-31 05:32:00,75.0,74.4,29.71,SW,225,3.2,-999.0,98,-99.99,,,0.00,Acu-Link.com,2013-08-31 10:32:00,
2013-08-31 05:48:00,74.8,74.2,29.73,South,180,3.7,-999.0,98,-99.99,,,0.00,Acu-Link.com,2013-08-31 10:48:00,
2013-08-31 06:03:00,75.2,74.6,29.73,West,270,2.7,-999.0,98,-99.99,,,0.00,Acu-Link.com,2013-08-31 11:03:00,
2013-08-31 06:18:00,75.6,75.0,29.73,SW,225,2.7,-999.0,98,-99.99,,,0.00,Acu-Link.com,2013-08-31 11:18:00,
2013-08-31 06:33:00,75.6,75.0,29.73,WSW,247,2.7,-999.0,98,-99.99,,,0.00,Acu-Link.com,2013-08-31 11:33:00,
2013-08-31 06:48:00,74.8,74.2,29.74,SSW,202,2.7,-999.0,98,-99.99,,,0.00,Acu-Link.com,2013-08-31 11:48:00,
2013-08-31 07:03:00,74.5,73.9,29.73,South,180,3.7,-999.0,98,-99.99,,,0.00,Acu-Link.com,2013-08-31 12:03:00,
2013-08-31 07:18:00,75.0,74.4,29.73,SW,225,2.7,-999.0,98,-99.99,,,0.00,Acu-Link.com,2013-08-31 12:18:00,
2013-08-31 07:34:00,75.7,75.1,29.73,SSW,202,3.2,-999.0,98,-99.99,,,0.00,Acu-Link.com,2013-08-31 12:34:00,
2013-08-31 07:49:00,76.3,75.7,29.74,South,180,2.7,-999.0,98,-99.99,,,0.00,Acu-Link.com,2013-08-31 12:49:00,
2013-08-31 08:04:00,80.8,78.6,29.75,SSW,202,1.1,-999.0,93,-99.99,,,0.00,Acu-Link.com,2013-08-31 13:04:00,
2013-08-31 08:20:00,81.1,78.2,29.75,SSW,202,3.7,-999.0,91,-99.99,,,0.00,Acu-Link.com,2013-08-31 13:20:00,
2013-08-31 08:35:00,84.2,78.8,29.75,SSW,202,3.7,-999.0,84,-99.99,,,0.00,Acu-Link.com,2013-08-31 13:35:00,
2013-08-31 08:50:00,86.4,79.5,29.74,SW,225,4.2,-999.0,80,-99.99,,,0.00,Acu-Link.com,2013-08-31 13:50:00,
2013-08-31 09:05:00,86.9,79.6,29.74,SW,225,5.3,-999.0,79,-99.99,,,0.00,Acu-Link.com,2013-08-31 14:05:00,
2013-08-31 09:20:00,88.3,79.7,29.73,SW,225,6.3,-999.0,76,-99.99,,,0.00,Acu-Link.com,2013-08-31 14:20:00,
2013-08-31 09:36:00,88.9,79.9,29.73,SW,225,5.3,-999.0,75,-99.99,,,0.00,Acu-Link.com,2013-08-31 14:36:00,
2013-08-31 09:53:00,91.8,80.6,29.74,South,180,3.2,-999.0,70,-99.99,,,0.00,Acu-Link.com,2013-08-31 14:53:00,
2013-08-31 10:08:00,93.2,81.0,29.73,WSW,247,4.2,-999.0,68,-99.99,,,0.00,Acu-Link.com,2013-08-31 15:08:00,
2013-08-31 10:23:00,93.2,80.6,29.72,West,270,4.2,-999.0,67,-99.99,,,0.00,Acu-Link.com,2013-08-31 15:23:00,
2013-08-31 10:39:00,92.8,79.7,29.73,South,180,5.3,-999.0,66,-99.99,,,0.00,Acu-Link.com,2013-08-31 15:39:00,
2013-08-31 10:54:00,94.3,80.2,29.74,SW,225,4.7,-999.0,64,-99.99,,,0.00,Acu-Link.com,2013-08-31 15:54:00,
2013-08-31 11:09:00,95.7,80.6,29.74,NW,315,3.7,-999.0,62,-99.99,,,0.00,Acu-Link.com,2013-08-31 16:09:00,
2013-08-31 11:25:00,96.1,81.4,29.74,ESE,112,6.8,-999.0,63,-99.99,,,0.00,Acu-Link.com,2013-08-31 16:25:00,
2013-08-31 11:40:00,96.8,81.6,29.74,West,270,6.3,-999.0,62,-99.99,,,0.00,Acu-Link.com,2013-08-31 16:40:00,
2013-08-31 11:55:00,93.9,81.7,29.73,NW,315,6.3,-999.0,68,-99.99,,,0.00,Acu-Link.com,2013-08-31 16:55:00,
2013-08-31 12:10:00,97.3,82.5,29.72,NNW,337,2.2,-999.0,63,-99.99,,,0.00,Acu-Link.com,2013-08-31 17:10:00,
2013-08-31 12:25:00,97.9,83.1,29.71,NE,45,6.3,-999.0,63,-99.99,,,0.00,Acu-Link.com,2013-08-31 17:25:00,
2013-08-31 12:40:00,98.4,83.6,29.71,NE,45,2.7,-999.0,63,-99.99,,,0.00,Acu-Link.com,2013-08-31 17:40:00,
2013-08-31 12:56:00,99.0,83.6,29.69,NNE,22,4.7,-999.0,62,-99.99,,,0.00,Acu-Link.com,2013-08-31 17:56:00,
2013-08-31 13:11:00,102.9,84.7,29.70,South,180,1.7,-999.0,57,-99.99,,,0.00,Acu-Link.com,2013-08-31 18:11:00,
2013-08-31 13:26:00,102.4,84.2,29.69,NNE,22,3.7,-999.0,57,-99.99,,,0.00,Acu-Link.com,2013-08-31 18:26:00,
2013-08-31 13:41:00,96.4,83.1,29.69,WNW,292,3.2,-999.0,66,-99.99,,,0.00,Acu-Link.com,2013-08-31 18:41:00,
2013-08-31 13:56:00,96.1,82.9,29.69,West,270,2.7,-999.0,66,-99.99,,,0.00,Acu-Link.com,2013-08-31 18:56:00,
2013-08-31 14:11:00,94.8,83.0,29.68,West,270,1.7,-999.0,69,-99.99,,,0.00,Acu-Link.com,2013-08-31 19:11:00,
2013-08-31 14:26:00,93.7,83.3,29.69,SW,225,2.2,-999.0,72,-99.99,,,0.00,Acu-Link.com,2013-08-31 19:26:00,
2013-08-31 14:41:00,93.4,83.0,29.69,SW,225,2.2,-999.0,72,-99.99,,,0.00,Acu-Link.com,2013-08-31 19:41:00,
2013-08-31 14:57:00,91.9,82.8,29.70,WSW,247,6.3,-999.0,75,-99.99,,,0.00,Acu-Link.com,2013-08-31 19:57:00,
2013-08-31 15:12:00,90.1,83.1,29.70,West,270,2.7,-999.0,80,-99.99,,,0.00,Acu-Link.com,2013-08-31 20:12:00,
2013-08-31 15:27:00,89.6,83.0,29.70,West,270,4.2,-999.0,81,-99.99,,,0.00,Acu-Link.com,2013-08-31 20:27:00,
2013-08-31 15:42:00,90.1,83.5,29.69,SW,225,2.7,-999.0,81,-99.99,,,0.00,Acu-Link.com,2013-08-31 20:42:00,
2013-08-31 15:57:00,91.2,83.4,29.69,SSE,157,0.0,-999.0,78,-99.99,,,0.00,Acu-Link.com,2013-08-31 20:57:00,
2013-08-31 16:12:00,90.9,83.5,29.68,WSW,247,1.1,-999.0,79,-99.99,,,0.00,Acu-Link.com,2013-08-31 21:12:00,
2013-08-31 16:27:00,88.9,82.7,29.70,SSW,202,2.2,-999.0,82,-99.99,,,0.00,Acu-Link.com,2013-08-31 21:27:00,
2013-08-31 16:43:00,88.5,83.4,29.70,SSW,202,3.2,-999.0,85,-99.99,,,0.00,Acu-Link.com,2013-08-31 21:43:00,
2013-08-31 16:58:00,86.0,82.7,29.70,SSE,157,3.2,-999.0,90,-99.99,,,0.00,Acu-Link.com,2013-08-31 21:58:00,
2013-08-31 17:13:00,85.3,82.4,29.69,South,180,3.2,-999.0,91,-99.99,,,0.00,Acu-Link.com,2013-08-31 22:13:00,
2013-08-31 17:28:00,88.0,83.3,29.69,NNE,22,2.7,-999.0,86,-99.99,,,0.00,Acu-Link.com,2013-08-31 22:28:00,
2013-08-31 17:43:00,87.8,83.1,29.68,ENE,67,3.7,-999.0,86,-99.99,,,0.00,Acu-Link.com,2013-08-31 22:43:00,
2013-08-31 17:58:00,87.6,83.6,29.67,NE,45,3.2,-999.0,88,-99.99,,,0.00,Acu-Link.com,2013-08-31 22:58:00,
2013-08-31 18:13:00,87.3,83.3,29.67,NNE,22,2.2,-999.0,88,-99.99,,,0.00,Acu-Link.com,2013-08-31 23:13:00,
2013-08-31 18:28:00,86.5,83.2,29.67,NNW,337,3.2,-999.0,90,-99.99,,,0.00,Acu-Link.com,2013-08-31 23:28:00,
2013-08-31 18:43:00,86.4,82.1,29.67,NE,45,3.7,-999.0,87,-99.99,,,0.00,Acu-Link.com,2013-08-31 23:43:00,
2013-08-31 18:58:00,85.8,81.8,29.67,NE,45,0.0,-999.0,88,-99.99,,,0.00,Acu-Link.com,2013-08-31 23:58:00,
2013-08-31 19:14:00,84.6,81.7,29.67,NNW,337,0.0,-999.0,91,-99.99,,,0.00,Acu-Link.com,2013-09-01 00:14:00,
2013-08-31 19:29:00,82.8,80.9,29.67,South,180,0.0,-999.0,94,-99.99,,,0.00,Acu-Link.com,2013-09-01 00:29:00,
2013-08-31 19:44:00,82.4,81.1,29.68,SW,225,0.0,-999.0,96,-99.99,,,0.00,Acu-Link.com,2013-09-01 00:44:00,
2013-08-31 19:59:00,80.8,80.2,29.67,South,180,0.0,-999.0,98,-99.99,,,0.00,Acu-Link.com,2013-09-01 00:59:00,
2013-08-31 20:14:00,79.7,79.1,29.68,SSW,202,0.0,-999.0,98,-99.99,,,0.00,Acu-Link.com,2013-09-01 01:14:00,
2013-08-31 20:29:00,78.8,78.2,29.67,SSW,202,0.0,-999.0,98,-99.99,,,0.00,Acu-Link.com,2013-09-01 01:29:00,
2013-08-31 20:45:00,78.4,77.8,29.69,NNW,337,2.2,-999.0,98,-99.99,,,0.00,Acu-Link.com,2013-09-01 01:45:00,
2013-08-31 21:00:00,77.5,76.9,29.68,West,270,0.0,-999.0,98,-99.99,,,0.00,Acu-Link.com,2013-09-01 02:00:00,
2013-08-31 21:15:00,77.2,76.6,29.69,WNW,292,0.0,-999.0,98,-99.99,,,0.00,Acu-Link.com,2013-09-01 02:15:00,
2013-08-31 21:30:00,76.8,76.2,29.69,WSW,247,0.0,-999.0,98,-99.99,,,0.00,Acu-Link.com,2013-09-01 02:30:00,
2013-08-31 21:45:00,76.6,76.0,29.71,NNE,22,2.7,-999.0,98,-99.99,,,0.00,Acu-Link.com,2013-09-01 02:45:00,
2013-08-31 22:00:00,76.8,76.2,29.71,NE,45,2.2,-999.0,98,-99.99,,,0.00,Acu-Link.com,2013-09-01 03:00:00,
2013-08-31 22:16:00,76.3,75.7,29.71,NNW,337,2.2,-999.0,98,-99.99,,,0.00,Acu-Link.com,2013-09-01 03:16:00,
2013-08-31 22:31:00,76.5,75.9,29.72,NNW,337,2.7,-999.0,98,-99.99,,,0.00,Acu-Link.com,2013-09-01 03:31:00,
2013-08-31 22:46:00,76.1,75.5,29.73,ENE,67,0.0,-999.0,98,-99.99,,,0.00,Acu-Link.com,2013-09-01 03:46:00,
2013-08-31 23:01:00,75.7,75.1,29.71,SSW,202,0.0,-999.0,98,-99.99,,,0.00,Acu-Link.com,2013-09-01 04:01:00,
2013-08-31 23:16:00,75.9,75.3,29.72,WNW,292,1.1,-999.0,98,-99.99,,,0.00,Acu-Link.com,2013-09-01 04:16:00,
2013-08-31 23:31:00,75.7,75.1,29.72,NNE,22,3.7,-999.0,98,-99.99,,,0.00,Acu-Link.com,2013-09-01 04:31:00,
2013-08-31 23:47:00,75.6,75.0,29.72,NNE,22,3.7,-999.0,98,-99.99,,,0.00,Acu-Link.com,2013-09-01 04:47:00,